SL-16 DEB

基本信息
目录编号:
25254
目录名称:
SL-16 DEB
国际标识:
1993-059H
轨道中心:
EARTH
物体状态:
在轨
发射日期:
1993-09-16 UTC
轨道信息
数据来源: 国际轨道数据
星历时间: 2026-09-13T15:09:09+0800
半长轴: 7190.848km
偏心率: 0.0016376
轨道倾角: 70.987°
近地点辐角: 201.748°
升交点赤经: 200.351°
平近点角: 318.260°
近地点: 800.935km
远地点: 824.487km
周期: 101.142分钟
每日圈数: 14.237465
详细信息
发射场:
TTMTR
轨道高度:
LEO
数据来源:
AOE Integration Group
参考系:
TEME
时间系统:
UTC
历元类型:
SGP4
2D轨道图
3D轨道图
轨道高度分析图
轨道倾角分析图
轨道综合分析图
查看轨道综合分析图